RH
30 24 26 34 48 55 81 64 66 55 100 94 100 100 100 79 63 76 69 35 20 18 14 13 12 11 11 11 10 10 9 10 9 8 8 8 9 8 15 16 14 35 91 96 100
33 33 26 27 29 35 47 60 80 71 89 100 93 100 100 98 78 87 68 51 23 21 19 16 14 13 13 12 12 12 12 12 10 11 12 10 10 9 8 8 8 8 8 16 32
35 36 33 27 27 29 29 37 56 79 71 89 88 95 100 99 99 99 86 59 37 24 22 20 18 16 16 16 14 14 13 14 14 15 13 12 13 13 12 11 12 11 10 9 8
47 40 43 36 29 32 33 31 38 75 86 89 78 78 100 100 97 99 99 87 67 33 25 22 20 18 19 21 20 17 17 20 17 19 17 17 17 15 14 13 14 16 14 13 12
47 48 45 47 40 30 25 30 34 46 70 92 91 73 92 100 100 100 100 100 95 71 38 26 24 21 21 21 18 17 18 21 16 16 15 22 22 20 19 18 17 17 16 15 15
38 55 34 50 45 35 39 26 40 38 55 68 80 83 71 100 100 100 100 100 97 100 82 60 45 24 22 21 20 19 20 22 19 19 19 21 24 25 22 19 19 17 17 16 14
39 49 61 34 56 48 36 36 25 41 38 53 58 82 71 63 100 100 100 100 100 100 100 93 80 52 26 23 22 21 25 28 26 25 30 30 42 26 32 28 27 27 23 22 23
46 44 74 67 40 51 56 47 33 26 48 45 47 49 68 76 74 100 95 100 100 100 100 99 100 87 60 32 27 26 26 33 43 45 45 45 44 40 32 31 32 33 29 25 23
57 56 56 75 93 72 50 59 51 40 28 34 46 45 56 60 74 74 99 90 99 100 100 90 94 94 83 68 39 29 35 42 47 48 45 48 42 46 41 39 36 38 38 33 26
38 43 56 78 81 78 72 46 52 55 45 32 39 68 48 63 62 75 86 100 84 96 100 100 100 100 92 90 67 50 44 42 42 42 42 47 48 51 50 52 48 48 43 41 40
50 37 38 69 99 77 93 67 49 50 49 42 31 29 86 72 74 84 79 74 91 86 100 100 100 100 100 97 83 77 49 44 40 40 41 48 48 56 58 63 64 53 51 55 52
43 52 56 73 75 67 90 71 52 56 44 45 48 42 32 36 52 74 78 71 69 96 92 97 100 100 100 93 97 96 77 70 49 42 42 44 48 46 55 57 58 56 58 59 67
36 47 47 67 70 84 71 70 63 60 53 44 43 35 35 32 36 58 70 76 73 80 98 100 100 100 100 100 96 99 92 78 77 68 59 53 48 43 45 49 50 52 64 95 100
38 63 59 64 62 59 73 69 63 56 44 44 47 37 33 37 33 38 56 70 72 77 81 89 100 100 100 100 100 100 100 92 83 78 71 74 73 67 63 68 70 98 100 100 100
84 82 67 84 90 82 56 58 62 57 37 40 42 44 43 38 41 45 58 72 72 75 76 90 100 100 100 100 100 100 100 100 96 87 81 74 58 97 87 96 100 100 100 100 100
100 100 100 100 100 86 86 66 52 56 37 41 49 50 49 51 58 53 50 60 72 72 77 74 93 92 100 100 100 100 100 100 100 97 81 86 75 84 100 100 100 100 100 100 100
100 100 100 89 81 74 74 76 69 44 52 54 49 48 53 58 67 68 59 54 59 86 86 100 97 95 89 93 96 99 100 100 100 100 72 100 100 62 100 100 100 100 100 100 99
100 100 100 94 85 87 82 86 72 73 80 69 72 56 56 62 65 73 81 71 56 65 99 100 100 100 93 90 100 100 100 100 100 100 100 83 76 66 93 100 100 100 100 100 92
100 100 100 100 100 99 99 83 84 94 86 75 71 66 64 65 74 78 84 94 82 61 71 98 100 100 100 100 100 95 86 99 98 85 88 83 75 89 74 68 100 100 100 100 100
100 100 100 100 100 100 100 99 91 82 88 92 91 84 69 65 76 98 97 92 98 83 63 62 75 91 100 100 98 80 92 95 88 76 79 69 70 86 100 88 85 100 100 100 100
90 91 89 78 89 88 76 90 82 87 86 94 100 99 80 76 73 81 100 100 99 98 82 64 67 70 75 84 96 100 94 96 100 76 65 60 60 82 100 100 100 92 100 100 100
51 49 41 48 53 47 39 47 62 55 82 100 100 100 91 84 98 100 96 100 100 100 91 94 69 63 65 75 85 84 90 92 93 82 85 76 70 71 68 76 86 78 75 100 100
26 27 30 36 32 30 36 43 48 48 53 76 100 100 100 100 100 100 100 100 100 100 100 99 84 80 72 67 66 76 94 100 100 100 100 87 62 82 74 85 99 100 100 100 100
21 22 24 28 30 31 38 48 53 73 94 100 100 100 100 100 100 100 100 100 100 100 100 100 100 92 82 93 85 77 84 94 95 92 89 84 100 100 100 97 98 100 100 100 100
17 16 16 19 24 34 43 64 84 79 100 100 100 100 100 100 100 100 100 100 100 100 100 100 100 100 100 100 100 100 89 91 85 94 86 91 86 100 93 100 100 100 100 100 100
12 13 14 17 25 26 27 37 77 100 99 91 75 100 100 100 100 100 100 100 100 100 100 100 100 100 100 100 100 100 100 100 100 97 96 100 100 100 100 100 100 100 99 92 88
8 9 10 13 18 21 24 41 88 100 93 98 84 100 100 100 100 100 100 100 100 100 100 100 100 100 100 100 100 78 100 100 100 100 100 100 100 100 100 100 100 86 72 75 76
Wind_Speed
33 15 9 38 37 34 29 31 31 31 31 31 31 33 37 36 34 30 32 31 29 27 27 26 24 23 24 26 31 35 37 38 39 38 38 40 41 42 46 46 45 48 51 48 48
25 30 12 14 34 37 34 31 30 33 31 32 33 35 36 36 34 34 35 33 32 30 29 29 27 26 25 26 27 28 30 31 33 34 34 35 35 38 39 41 41 41 44 48 50
21 22 19 7 16 35 40 37 32 32 33 33 35 36 39 37 37 38 38 37 35 34 33 32 31 30 28 27 27 28 28 27 29 31 32 32 32 33 36 37 36 38 38 40 42
12 16 16 17 9 24 36 40 37 33 36 36 37 37 40 40 40 41 39 40 40 38 38 37 35 33 33 33 32 30 29 30 31 32 32 32 33 34 33 35 34 33 33 34 35
12 10 9 13 16 10 22 32 45 41 38 39 38 39 42 41 41 43 43 41 43 43 43 42 40 39 38 37 35 34 33 34 34 34 34 33 33 33 34 35 35 35 34 34 33
18 12 9 8 12 8 13 21 39 48 43 40 42 42 43 40 39 44 47 44 40 44 47 47 47 43 42 40 38 37 37 37 37 37 36 35 36 35 34 33 35 34 35 34 34
24 21 16 14 10 10 15 13 18 42 49 47 42 43 45 45 44 43 45 48 46 43 46 51 50 47 45 42 41 40 39 38 39 38 37 36 37 36 36 36 36 36 36 36 36
30 25 26 20 17 16 14 14 15 22 45 50 51 48 47 47 49 48 49 48 49 49 45 47 52 51 49 47 46 45 42 41 41 40 38 38 39 37 37 37 37 37 37 37 37
35 31 31 31 27 22 23 20 19 17 26 48 53 55 54 52 51 54 52 52 51 52 52 50 50 52 53 52 50 48 47 47 46 43 41 40 40 38 39 38 37 36 37 38 38
37 37 36 35 34 33 30 27 25 27 25 29 49 58 57 58 57 56 58 55 56 55 55 54 54 51 54 55 54 55 54 53 51 47 44 42 42 39 38 37 37 37 36 37 38
45 42 42 42 43 41 42 37 34 33 34 31 27 45 64 65 62 61 59 60 60 59 59 58 57 54 62 62 60 57 56 55 54 51 47 46 43 42 39 38 38 37 36 36 36
54 50 49 50 50 48 49 44 42 41 39 33 36 41 48 64 68 67 66 64 62 63 63 61 59 64 61 61 62 62 60 58 58 57 53 50 49 45 42 43 40 37 40 39 38
61 59 59 56 57 58 57 56 53 49 45 40 39 40 49 52 64 69 70 69 67 66 64 65 67 67 64 63 63 64 65 65 64 63 59 56 52 48 47 47 45 42 44 44 45
71 69 67 67 65 65 67 64 63 59 52 47 47 41 46 57 58 66 70 73 70 72 71 67 67 69 70 67 67 65 69 71 70 69 64 62 54 55 52 49 47 50 50 52 51
78 77 76 77 75 78 73 70 68 68 59 54 52 48 52 55 60 66 71 71 73 73 76 72 73 73 73 75 74 71 73 75 75 74 70 64 57 59 55 53 57 57 54 53 50
88 88 86 85 87 85 86 84 76 73 60 61 55 53 56 62 66 66 67 73 75 75 76 77 75 73 73 77 78 77 77 76 75 77 69 67 63 53 60 61 60 60 60 58 56
99 98 96 94 95 94 92 92 89 77 70 66 60 54 62 68 69 69 68 69 75 79 77 77 78 76 74 75 76 78 81 84 81 78 66 70 74 52 66 65 66 66 65 64 61
107 106 103 102 100 100 98 96 93 84 78 67 57 53 61 74 73 72 73 71 70 74 78 79 80 80 79 78 78 81 83 85 85 81 76 77 71 63 64 69 72 72 72 70 68
116 113 111 111 107 107 106 102 92 88 82 75 71 62 66 70 78 78 77 75 75 74 80 83 83 83 83 83 82 80 82 84 86 84 83 79 72 70 69 71 72 74 75 74 71
127 125 120 121 119 116 112 104 97 94 89 80 73 66 70 75 82 85 80 77 76 77 80 83 86 85 84 86 86 84 81 84 85 84 84 78 75 73 70 71 74 75 76 76 76
137 134 126 127 128 127 118 106 99 93 90 84 77 76 73 79 83 84 87 79 81 80 80 81 84 85 86 86 87 86 86 87 86 83 81 83 78 74 72 74 75 78 81 80 79
143 139 128 132 132 127 116 108 103 96 89 84 80 80 79 84 88 89 85 88 83 84 81 80 81 83 84 88 89 89 85 86 87 83 82 78 73 76 79 82 84 84 84 82 82
133 130 125 123 122 111 104 97 94 89 83 84 84 83 85 88 87 89 89 88 88 87 87 83 80 80 79 81 84 86 87 88 86 86 83 85 69 77 80 81 84 86 87 88 90
121 120 118 117 111 107 100 93 89 84 80 82 87 87 90 89 91 91 91 89 91 91 90 89 85 80 77 79 82 84 88 92 93 92 82 78 78 80 83 85 86 86 89 91 92
118 118 111 107 103 101 101 93 92 86 85 85 90 92 92 95 95 95 92 90 91 93 94 92 89 85 81 82 82 79 80 84 88 88 87 79 81 80 85 87 89 91 91 91 91
112 110 106 98 100 102 98 94 94 92 89 90 85 99 100 98 99 97 98 95 93 91 93 94 93 93 91 87 84 82 80 77 74 75 77 81 83 84 86 88 92 94 94 94 92
104 100 97 97 100 99 92 91 95 100 97 96 92 101 107 106 104 101 98 97 96 97 96 93 96 96 95 95 94 89 80 80 77 76 75 73 73 83 87 91 95 97 93 91 92
Wind_Direction
30 7 297 207 201 194 195 199 203 199 211 209 211 214 210 210 212 212 209 207 210 207 204 204 201 200 198 203 208 215 218 221 223 227 230 232 233 236 238 240 241 240 238 237 235
29 26 355 251 219 207 202 205 211 208 208 215 213 212 212 215 214 213 215 212 212 215 211 209 208 208 209 209 209 210 211 216 222 225 225 227 228 232 235 238 240 243 244 245 247
23 33 18 331 247 226 217 211 213 222 218 220 216 216 218 218 216 216 218 218 216 218 219 215 212 211 214 218 222 221 220 219 220 224 223 224 226 227 230 234 234 237 239 242 243
10 21 36 13 272 245 235 225 220 224 224 224 223 222 224 222 223 220 219 223 222 221 225 222 218 216 217 217 221 225 225 226 228 229 230 230 231 231 231 231 229 231 232 236 238
331 344 4 351 357 293 251 249 233 228 226 228 227 224 231 232 228 230 224 224 226 225 224 229 226 222 221 224 225 225 228 231 234 235 235 235 235 233 233 233 234 234 236 238 240
308 295 324 321 332 345 344 261 248 234 229 228 230 231 230 234 240 235 233 229 230 233 227 229 231 229 228 228 228 228 230 233 236 236 239 237 238 236 236 235 238 237 239 240 243
297 291 280 289 283 296 320 305 265 241 236 233 235 231 232 233 239 239 240 238 236 232 233 230 233 235 235 234 234 233 233 233 235 236 236 236 238 239 240 239 240 243 242 244 247
285 286 279 271 279 282 285 289 295 261 243 243 238 237 234 235 238 237 238 240 242 239 235 237 235 236 236 237 236 236 237 232 232 235 237 237 239 240 242 244 245 245 247 249 252
282 277 280 277 272 273 287 280 267 265 262 246 246 243 239 238 238 238 237 239 241 243 238 238 239 236 236 238 239 239 239 234 232 235 238 240 241 241 243 245 248 251 251 252 253
275 270 272 271 273 268 277 278 278 273 262 259 248 243 247 242 241 239 237 239 237 239 243 246 241 240 239 238 238 238 237 237 236 237 240 240 241 241 243 245 249 250 252 255 255
271 272 272 267 267 270 275 276 276 272 278 253 255 252 241 245 242 238 237 237 239 238 240 244 244 241 236 236 238 240 240 241 240 241 244 245 246 244 244 245 248 253 257 259 259
272 270 266 266 266 269 271 267 270 272 270 256 264 260 257 245 244 242 240 240 239 240 239 241 243 242 243 241 240 241 241 240 240 241 243 244 246 245 246 250 251 254 256 259 261
270 267 268 262 266 269 270 271 271 269 269 269 269 264 258 258 247 244 242 241 241 240 240 239 239 242 245 247 243 243 242 240 240 240 240 243 245 246 248 250 251 252 256 262 259
269 268 268 267 267 266 268 269 270 269 269 265 268 262 252 257 256 247 244 243 243 241 240 239 239 241 243 245 246 245 242 240 241 242 243 244 243 247 247 251 253 257 261 266 263
265 266 268 268 267 267 271 267 268 270 272 272 276 260 257 255 251 247 245 245 242 243 241 238 239 238 238 238 241 244 244 242 241 241 244 246 246 248 251 253 256 257 262 264 262
266 266 267 267 266 268 271 272 269 269 274 276 276 263 255 251 251 250 247 243 243 242 243 241 239 240 239 239 241 240 243 243 247 245 247 249 251 247 253 254 255 259 262 262 260
265 265 265 265 265 267 268 270 271 274 273 274 271 263 253 248 248 249 248 246 242 239 239 239 238 239 239 239 240 241 241 242 245 248 248 252 253 243 249 254 257 261 261 260 259
265 266 266 266 266 268 269 270 271 274 275 274 262 258 244 248 245 245 246 246 244 243 240 239 238 240 241 242 241 239 239 241 243 243 244 243 248 247 249 254 257 260 260 259 258
262 263 265 264 264 266 267 268 271 272 270 268 264 257 244 246 245 245 244 244 244 243 242 239 238 239 240 241 243 243 242 243 245 244 244 245 247 249 249 250 252 254 256 258 259
263 262 262 262 262 263 264 268 269 269 269 266 258 247 244 244 245 244 243 242 243 243 243 241 240 239 240 241 242 243 244 245 248 247 246 247 246 245 247 244 247 253 254 256 258
263 263 262 262 262 262 265 264 263 263 262 259 249 247 243 239 240 243 241 241 240 242 242 243 243 241 241 242 244 245 245 246 247 248 249 246 244 242 242 244 248 250 254 256 258
260 261 261 261 261 262 263 263 260 256 251 247 244 242 238 236 238 241 243 242 241 241 242 243 243 243 244 243 244 245 246 248 248 249 249 248 246 249 246 244 246 249 252 255 257
257 258 256 256 257 259 258 257 255 253 248 243 238 236 234 237 237 240 241 241 241 241 243 242 243 243 243 246 248 248 249 250 249 249 249 250 248 250 247 246 246 246 249 252 255
252 251 251 252 253 253 252 250 249 244 239 236 235 233 233 237 238 239 240 242 242 240 241 244 244 243 243 243 245 245 246 246 247 248 249 250 249 248 250 250 250 251 252 254 255
247 248 249 249 248 249 247 245 244 242 235 235 232 231 233 235 239 240 240 240 242 242 240 240 243 244 243 243 244 246 246 247 249 250 251 250 252 251 250 251 251 251 251 252 253
245 245 246 244 242 243 242 240 239 238 234 235 230 230 231 234 238 242 242 241 241 241 243 240 242 243 242 241 243 243 245 249 250 252 252 250 249 251 251 250 251 252 252 253 255
243 242 241 240 238 238 238 235 234 235 234 233 232 228 229 233 235 238 241 244 246 244 239 240 240 243 243 244 242 240 243 245 247 248 249 249 246 247 251 252 252 254 256 257 257